Stations météo

réclame
Mon MeteoGroup
Kleine Brogel, Belgique (6479): Température de l'air & dewpoint: 08.07.2020 22:00:00 - 14.07.2020 22:00:00 (CEST)Kleine Brogel, Belgique (6479): Vitesse du vent & gusts: 08.07.2020 22:00:00 - 14.07.2020 22:00:00 (CEST)Kleine Brogel, Belgique (6479): Direction du vent: 08.07.2020 22:00:00 - 14.07.2020 22:00:00 (CEST)Kleine Brogel, Belgique (6479): reduced air pressure: 08.07.2020 22:00:00 - 14.07.2020 22:00:00 (CEST)Kleine Brogel, Belgique (6479): visibility: 08.07.2020 22:00:00 - 14.07.2020 22:00:00 (CEST)
Date & Time tt [°C] td [°C] ff [km/h] ff [knt] fx [km/h] fx [knt] dd ppp [hPa] vv [km]
14.07.2020 22:00:00 14,8 14,5 4 2 11 6 N 1014,2 13
14.07.2020 21:00:00 15,3 15,0 7 4 18 10 NNW 1013,8 9
14.07.2020 20:00:00 15,6 14,5 2 1 - - - 1013,6 10
14.07.2020 19:00:00 15,8 15,2 4 2 11 6 N 1013,7 17
14.07.2020 18:00:00 16,2 15,8 8 4 11 6 W 1014,1 6
14.07.2020 17:00:00 15,8 15,2 5 3 - - W 1014,5 2,0
14.07.2020 16:00:00 16,0 15,3 4 2 14 8 N 1014,7 4,0
14.07.2020 15:00:00 16,9 13,5 7 4 14 8 NW 1015,2 14
14.07.2020 14:00:00 16,5 12,6 11 6 - - SW 1015,2 14
14.07.2020 13:00:00 18,3 10,9 7 4 18 10 W 1015,6 18
14.07.2020 12:00:00 19,2 8,5 4 2 18 10 N 1015,6 18
14.07.2020 11:00:00 18,5 10,6 11 6 - - SW 1015,7 18
14.07.2020 10:00:00 17,9 12,1 7 4 14 8 SW 1016,0 18
14.07.2020 09:00:00 17,6 11,1 4 2 11 6 N 1016,0 18
14.07.2020 08:00:00 15,6 10,9 4 2 - - N 1016,2 18
14.07.2020 07:00:00 13,6 10,5 4 2 4 2 N 1016,7 20
14.07.2020 06:00:00 12,3 9,5 4 2 4 2 N 1016,8 19
14.07.2020 05:00:00 11,5 9,4 4 2 - - N 1017,2 18
14.07.2020 04:00:00 11,1 9,5 4 2 4 2 N 1017,6 16
14.07.2020 03:00:00 11,4 9,5 4 2 4 2 N 1018,2 18
14.07.2020 02:00:00 12,3 9,8 4 2 - - N 1018,7 20
14.07.2020 01:00:00 13,5 9,6 4 2 4 2 N 1019,0 20
14.07.2020 00:00:00 14,8 9,5 4 2 4 2 N 1019,2 20
13.07.2020 23:00:00 16,7 9,2 4 2 - - N 1019,7 20
13.07.2020 22:00:00 18,2 10,3 4 2 14 8 N 1019,6 20
13.07.2020 21:00:00 21,5 9,6 7 4 14 8 N 1019,3 20
13.07.2020 20:00:00 23,1 6,9 4 2 - - N 1019,5 20
13.07.2020 19:00:00 24,0 7,9 7 4 18 10 NW 1019,7 20
13.07.2020 18:00:00 24,5 8,4 7 4 25 14 NW 1020,2 19
13.07.2020 17:00:00 25,3 9,0 7 4 - - NW 1020,7 20
13.07.2020 16:00:00 23,4 5,7 4 2 22 12 N 1021,2 20
13.07.2020 15:00:00 24,4 9,8 4 2 18 10 N 1021,7 20
13.07.2020 14:00:00 23,2 8,3 7 4 - - N 1022,6 20
13.07.2020 13:00:00 23,0 9,4 4 2 14 8 N 1023,3 20
13.07.2020 12:00:00 22,1 9,0 4 2 18 10 N 1023,8 20
13.07.2020 11:00:00 21,1 12,0 7 4 - - NNE 1024,2 20
13.07.2020 10:00:00 18,6 10,7 4 2 7 4 N 1024,5 20
13.07.2020 09:00:00 16,0 10,7 4 2 7 4 N 1025,0 20
13.07.2020 08:00:00 13,3 10,0 4 2 - - N 1025,0 20
13.07.2020 07:00:00 10,1 9,4 4 2 0 0 N 1025,0 18
13.07.2020 06:00:00 9,8 9,0 2 1 4 2 - 1025,0 7
13.07.2020 05:00:00 10,1 9,0 4 2 - - N 1025,4 20
13.07.2020 04:00:00 11,1 9,2 4 2 7 4 N 1025,9 20
13.07.2020 03:00:00 11,8 9,4 4 2 11 6 N 1026,0 20
13.07.2020 02:00:00 12,5 9,3 4 2 - - N 1026,2 20
13.07.2020 01:00:00 12,8 9,1 4 2 7 4 N 1026,5 20
13.07.2020 00:00:00 13,3 9,3 4 2 4 2 N 1026,5 20
12.07.2020 23:00:00 14,0 9,6 0 0 - - N 1026,7 20
12.07.2020 22:00:00 16,2 9,0 4 2 11 6 N 1026,5 20
12.07.2020 21:00:00 18,5 8,3 7 4 14 8 NE 1026,2 20
12.07.2020 20:00:00 19,7 7,8 11 6 - - NE 1026,4 20
12.07.2020 19:00:00 20,6 7,1 4 2 18 10 N 1026,7 17
12.07.2020 18:00:00 20,7 7,0 11 6 18 10 NE 1027,0 20
12.07.2020 17:00:00 20,8 5,8 7 4 - - N 1027,2 19
12.07.2020 16:00:00 20,1 6,4 7 4 18 10 E 1027,7 20
12.07.2020 15:00:00 20,1 7,3 14 8 22 12 NE 1028,0 20
12.07.2020 14:00:00 20,2 7,5 7 4 - - N 1028,2 20
12.07.2020 13:00:00 20,2 8,6 7 4 14 8 NNE 1028,7 20
12.07.2020 12:00:00 18,2 8,3 4 2 14 8 N 1028,7 20
12.07.2020 11:00:00 17,3 7,1 4 2 - - N 1028,9 20
12.07.2020 10:00:00 15,9 10,2 7 4 11 6 NE 1029,0 20
12.07.2020 09:00:00 15,1 11,0 7 4 11 6 ENE 1028,7 20
12.07.2020 08:00:00 13,2 11,1 4 2 - - N 1028,5 20
12.07.2020 07:00:00 10,1 9,9 0 0 4 2 N 1028,0 11
12.07.2020 06:00:00 9,3 9,0 4 2 4 2 N 1027,7 12
12.07.2020 05:00:00 9,9 9,6 4 2 - - N 1027,5 9
12.07.2020 04:00:00 10,6 9,8 4 2 7 4 N 1027,4 18
12.07.2020 03:00:00 11,6 10,1 4 2 11 6 N 1027,5 20
12.07.2020 02:00:00 12,0 10,1 4 2 - - N 1027,2 20
12.07.2020 01:00:00 12,6 10,2 7 4 11 6 N 1027,5 20
12.07.2020 00:00:00 12,7 10,2 7 4 11 6 NNW 1027,2 20
11.07.2020 23:00:00 12,8 10,5 4 2 - - N 1027,0 20
11.07.2020 22:00:00 14,3 10,7 4 2 7 4 N 1026,5 20
11.07.2020 21:00:00 16,4 10,4 4 2 18 10 N 1026,0 20
11.07.2020 20:00:00 17,6 10,2 11 6 - - NNW 1026,0 20
11.07.2020 19:00:00 18,0 10,5 7 4 18 10 N 1025,7 20
11.07.2020 18:00:00 17,2 11,1 11 6 25 14 NNE 1025,7 20
11.07.2020 17:00:00 19,3 9,6 7 4 - - NW 1025,4 20
11.07.2020 16:00:00 15,2 11,0 7 4 36 19 N 1025,4 20
11.07.2020 15:00:00 18,3 10,2 7 4 22 12 NE 1025,0 20
11.07.2020 14:00:00 17,9 10,4 13 7 - - N 1025,0 10
11.07.2020 13:00:00 17,7 8,5 4 2 14 8 N 1024,7 20
11.07.2020 12:00:00 17,7 8,8 7 4 14 8 SW 1024,7 20
11.07.2020 11:00:00 17,4 9,5 4 2 - - N 1024,5 20
11.07.2020 10:00:00 16,5 9,6 7 4 11 6 N 1024,4 20
11.07.2020 09:00:00 14,9 9,1 4 2 7 4 N 1024,0 20
11.07.2020 08:00:00 12,1 10,3 4 2 - - N 1023,7 19
11.07.2020 07:00:00 8,9 8,7 4 2 4 2 N 1023,2 10
11.07.2020 06:00:00 7,6 7,4 4 2 7 4 N 1022,8 4,7
11.07.2020 05:00:00 8,1 7,9 4 2 - - - 1022,5 3,6
11.07.2020 04:00:00 8,6 8,1 4 2 7 4 - 1022,2 4,7
11.07.2020 03:00:00 9,0 8,5 4 2 4 2 - 1022,2 2,8
11.07.2020 02:00:00 9,8 8,9 4 2 - - N 1021,8 17
11.07.2020 01:00:00 10,5 9,4 4 2 4 2 N 1021,2 20
11.07.2020 00:00:00 11,6 9,7 4 2 7 4 N 1020,7 20
10.07.2020 23:00:00 13,6 9,8 4 2 - - N 1020,0 20
10.07.2020 22:00:00 14,7 10,7 4 2 11 6 N 1019,2 20
10.07.2020 21:00:00 16,2 9,5 4 2 22 12 N 1018,7 20
10.07.2020 20:00:00 16,7 9,7 11 6 - - NNW 1018,2 20
10.07.2020 19:00:00 18,2 9,3 11 6 22 12 NW 1017,6 20
10.07.2020 18:00:00 18,4 9,6 11 6 22 12 NW 1017,2 20
10.07.2020 17:00:00 17,5 11,4 14 8 - - NNW 1017,0 15
10.07.2020 16:00:00 17,6 12,3 14 8 25 14 NW 1016,5 15
10.07.2020 15:00:00 16,0 12,5 11 6 29 16 NW 1016,1 15
10.07.2020 14:00:00 15,3 13,9 11 6 - - NNW 1014,8 15
10.07.2020 13:00:00 17,5 13,0 11 6 32 18 NW 1013,6 15
10.07.2020 12:00:00 17,0 12,9 11 6 29 16 NW 1013,0 15
10.07.2020 11:00:00 16,2 14,2 11 6 - - NW 1011,6 15
10.07.2020 10:00:00 16,8 16,0 18 10 29 16 W 1010,2 15
10.07.2020 09:00:00 16,6 15,1 18 10 36 19 WSW 1009,3 3,5
10.07.2020 08:00:00 16,7 14,4 25 14 - - WSW 1009,0 15
10.07.2020 07:00:00 16,8 14,2 21 11 32 18 WSW 1008,7 10
10.07.2020 06:00:00 17,1 13,9 18 10 32 18 WSW 1008,7 20
10.07.2020 05:00:00 17,3 14,2 18 10 - - WSW 1008,7 20
10.07.2020 04:00:00 17,7 14,4 18 10 29 16 SW 1009,2 20
10.07.2020 03:00:00 18,0 14,8 11 6 18 10 SW 1009,7 20
10.07.2020 02:00:00 18,0 15,1 7 4 - - SSW 1010,2 20
10.07.2020 01:00:00 16,7 14,9 4 2 7 4 N 1010,8 15
10.07.2020 00:00:00 17,1 14,7 4 2 7 4 N 1011,0 20
09.07.2020 23:00:00 17,4 14,8 4 2 - - N 1011,3 20
09.07.2020 22:00:00 18,1 15,5 4 2 7 4 N 1011,6 20
09.07.2020 21:00:00 21,0 15,6 7 4 18 10 N 1011,5 20
09.07.2020 20:00:00 21,2 15,7 11 6 - - W 1012,0 20
09.07.2020 19:00:00 21,7 15,3 14 8 29 16 WSW 1011,8 20
09.07.2020 18:00:00 21,2 14,8 18 10 50 27 WSW 1012,5 20
09.07.2020 17:00:00 21,2 14,8 22 12 - - WSW 1013,0 20
09.07.2020 16:00:00 21,6 14,8 32 18 43 23 WSW 1013,2 20
09.07.2020 15:00:00 21,1 14,8 22 12 36 19 WSW 1013,3 20
09.07.2020 14:00:00 20,4 14,9 22 12 - - WSW 1013,5 20
09.07.2020 13:00:00 20,6 15,0 29 16 36 19 WSW 1013,3 20
09.07.2020 12:00:00 19,1 15,0 22 12 32 18 SW 1013,3 20
09.07.2020 11:00:00 17,5 15,5 22 12 - - WSW 1013,7 20
09.07.2020 10:00:00 17,1 15,4 22 12 36 19 SW 1013,7 20
09.07.2020 09:00:00 - - - - - - - - -
09.07.2020 08:00:00 16,7 15,9 18 10 - - SW 1013,6 10
09.07.2020 07:00:00 16,2 15,8 16 9 25 14 SW 1013,8 10
09.07.2020 06:00:00 16,2 15,8 14 8 25 14 SW 1014,2 8
09.07.2020 05:00:00 16,2 15,8 14 8 - - SW 1014,3 7
09.07.2020 04:00:00 16,1 15,7 11 6 18 10 SW 1014,3 7
09.07.2020 03:00:00 16,1 15,8 7 4 22 12 SW 1014,8 7
09.07.2020 02:00:00 15,8 15,7 4 2 - - N 1014,8 8
09.07.2020 01:00:00 15,6 15,5 4 2 7 4 N 1015,3 5
09.07.2020 00:00:00 15,5 15,3 4 2 7 4 N 1015,7 4,2
08.07.2020 23:00:00 15,6 15,3 4 2 - - - 1016,2 4,1
08.07.2020 22:00:00 15,6 15,3 4 2 7 4 N 1015,8 9

tt = Température de l'air
td = dewpoint
ff = Vitesse du vent
fx = gusts
dd = Direction du vent
ppp = reduced air pressure
vv = visibility

stations d'obs. à proximité